TimeCST,TemperatureF,Dew PointF,Humidity,Sea Level PressureIn,VisibilityMPH,Wind Direction,Wind SpeedMPH,Gust SpeedMPH,PrecipitationIn,Events,Conditions,WindDirDegrees,DateUTC
12:15 AM,35.6,30.2,81,30.38,10.0,Calm,Calm,-,N/A,,Clear,0,2012-11-16 06:15:00
12:35 AM,33.8,30.2,87,30.38,10.0,Calm,Calm,-,N/A,,Clear,0,2012-11-16 06:35:00
12:55 AM,32.0,28.4,87,30.38,5.0,Calm,Calm,-,N/A,,Clear,0,2012-11-16 06:55:00
1:15 AM,32.0,30.2,93,30.39,7.0,Calm,Calm,-,N/A,,Scattered Clouds,0,2012-11-16 07:15:00
1:35 AM,30.2,28.4,93,30.39,5.0,Calm,Calm,-,N/A,,Clear,0,2012-11-16 07:35:00
1:55 AM,30.2,28.4,93,30.39,5.0,Calm,Calm,-,N/A,,Clear,0,2012-11-16 07:55:00
2:15 AM,32.0,28.4,87,30.39,5.0,Calm,Calm,-,N/A,,Clear,0,2012-11-16 08:15:00
2:35 AM,32.0,28.4,87,30.40,5.0,Calm,Calm,-,N/A,,Clear,0,2012-11-16 08:35:00
2:55 AM,30.2,28.4,93,30.40,5.0,Calm,Calm,-,N/A,,Clear,0,2012-11-16 08:55:00
3:15 AM,32.0,28.4,87,30.40,7.0,North,3.5,-,N/A,,Clear,350,2012-11-16 09:15:00
3:35 AM,30.2,28.4,93,30.40,5.0,Calm,Calm,-,N/A,,Clear,0,2012-11-16 09:35:00
3:55 AM,30.2,28.4,93,30.40,5.0,Calm,Calm,-,N/A,,Clear,0,2012-11-16 09:55:00
4:15 AM,30.2,28.4,93,30.41,5.0,Calm,Calm,-,N/A,,Clear,0,2012-11-16 10:15:00
4:35 AM,30.2,28.4,93,30.41,5.0,Calm,Calm,-,N/A,,Clear,0,2012-11-16 10:35:00
4:55 AM,30.2,26.6,86,30.41,5.0,Calm,Calm,-,N/A,,Clear,0,2012-11-16 10:55:00
5:15 AM,30.2,28.4,93,30.41,5.0,Calm,Calm,-,N/A,,Clear,0,2012-11-16 11:15:00
5:35 AM,30.2,28.4,93,30.41,5.0,Calm,Calm,-,N/A,,Clear,0,2012-11-16 11:35:00
5:55 AM,30.2,28.4,93,30.41,5.0,Calm,Calm,-,N/A,,Clear,0,2012-11-16 11:55:00
6:15 AM,30.2,28.4,93,30.42,4.0,Calm,Calm,-,N/A,,Clear,0,2012-11-16 12:15:00
6:35 AM,30.2,28.4,93,30.43,4.0,NNE,4.6,-,N/A,,Clear,20,2012-11-16 12:35:00
6:55 AM,30.2,28.4,93,30.43,4.0,Calm,Calm,-,N/A,,Clear,0,2012-11-16 12:55:00
7:15 AM,30.2,28.4,93,30.44,4.0,Calm,Calm,-,N/A,,Clear,0,2012-11-16 13:15:00
7:35 AM,32.0,28.4,87,30.45,4.0,North,3.5,-,N/A,,Clear,10,2012-11-16 13:35:00
7:55 AM,33.8,30.2,87,30.45,5.0,Calm,Calm,-,N/A,,Clear,0,2012-11-16 13:55:00
8:15 AM,35.6,32.0,87,30.46,5.0,Calm,Calm,-,N/A,,Clear,0,2012-11-16 14:15:00
8:35 AM,37.4,33.8,87,30.46,5.0,Calm,Calm,-,N/A,,Clear,0,2012-11-16 14:35:00
8:55 AM,39.2,33.8,81,30.47,7.0,Calm,Calm,-,N/A,,Clear,0,2012-11-16 14:55:00
9:15 AM,41.0,35.6,81,30.47,7.0,Calm,Calm,-,N/A,,Clear,0,2012-11-16 15:15:00
9:35 AM,42.8,35.6,76,30.47,7.0,Calm,Calm,-,N/A,,Clear,0,2012-11-16 15:35:00
9:55 AM,44.6,35.6,71,30.47,7.0,Calm,Calm,-,N/A,,Clear,0,2012-11-16 15:55:00
10:15 AM,46.4,35.6,66,30.47,10.0,NE,5.8,-,N/A,,Clear,40,2012-11-16 16:15:00
10:35 AM,46.4,35.6,66,30.47,10.0,NE,4.6,-,N/A,,Clear,40,2012-11-16 16:35:00
10:55 AM,46.4,35.6,66,30.47,10.0,NE,5.8,-,N/A,,Clear,50,2012-11-16 16:55:00
11:15 AM,48.2,33.8,58,30.46,10.0,NE,3.5,-,N/A,,Clear,40,2012-11-16 17:15:00
11:35 AM,48.2,33.8,58,30.45,10.0,ENE,3.5,-,N/A,,Clear,70,2012-11-16 17:35:00
11:55 AM,48.2,30.2,50,30.45,10.0,North,3.5,-,N/A,,Clear,10,2012-11-16 17:55:00
12:15 PM,50.0,30.2,47,30.44,10.0,Calm,Calm,-,N/A,,Clear,0,2012-11-16 18:15:00
12:35 PM,51.8,30.2,44,30.44,10.0,ENE,3.5,-,N/A,,Clear,60,2012-11-16 18:35:00
12:55 PM,51.8,30.2,44,30.43,10.0,NNE,4.6,-,N/A,,Clear,20,2012-11-16 18:55:00
1:15 PM,51.8,30.2,44,30.42,10.0,NNE,5.8,-,N/A,,Clear,20,2012-11-16 19:15:00
1:35 PM,51.8,30.2,44,30.43,10.0,ENE,3.5,-,N/A,,Clear,60,2012-11-16 19:35:00
1:55 PM,51.8,28.4,41,30.43,10.0,NE,5.8,-,N/A,,Clear,40,2012-11-16 19:55:00
2:15 PM,51.8,28.4,41,30.43,7.0,NNE,4.6,-,N/A,,Clear,20,2012-11-16 20:15:00
2:35 PM,51.8,28.4,41,30.42,10.0,North,4.6,-,N/A,,Clear,10,2012-11-16 20:35:00
2:55 PM,51.8,28.4,41,30.43,10.0,North,5.8,-,N/A,,Clear,10,2012-11-16 20:55:00
3:15 PM,51.8,28.4,41,30.43,10.0,NE,4.6,-,N/A,,Clear,50,2012-11-16 21:15:00
3:35 PM,51.8,30.2,44,30.43,10.0,NNE,6.9,-,N/A,,Clear,20,2012-11-16 21:35:00
3:55 PM,51.8,30.2,44,30.44,10.0,NNE,5.8,-,N/A,,Clear,20,2012-11-16 21:55:00
4:15 PM,48.2,30.2,50,30.44,10.0,NNE,4.6,-,N/A,,Clear,20,2012-11-16 22:15:00
4:35 PM,48.2,30.2,50,30.44,10.0,NNE,4.6,-,N/A,,Clear,20,2012-11-16 22:35:00
4:55 PM,46.4,30.2,53,30.44,10.0,NNE,3.5,-,N/A,,Clear,30,2012-11-16 22:55:00
5:15 PM,46.4,30.2,53,30.44,10.0,NNE,3.5,-,N/A,,Clear,20,2012-11-16 23:15:00
5:35 PM,44.6,30.2,57,30.44,10.0,NNE,3.5,-,N/A,,Clear,30,2012-11-16 23:35:00
5:55 PM,44.6,30.2,57,30.44,10.0,Calm,Calm,-,N/A,,Clear,0,2012-11-16 23:55:00
6:15 PM,42.8,32.0,66,30.44,10.0,North,3.5,-,N/A,,Clear,10,2012-11-17 00:15:00
6:35 PM,42.8,32.0,66,30.45,10.0,North,3.5,-,N/A,,Clear,10,2012-11-17 00:35:00
6:55 PM,41.0,32.0,70,30.45,10.0,North,3.5,-,N/A,,Clear,10,2012-11-17 00:55:00
7:15 PM,39.2,32.0,75,30.44,10.0,Calm,Calm,-,N/A,,Clear,0,2012-11-17 01:15:00
7:35 PM,37.4,32.0,81,30.45,10.0,Calm,Calm,-,N/A,,Clear,0,2012-11-17 01:35:00
7:55 PM,39.2,32.0,75,30.45,10.0,North,3.5,-,N/A,,Clear,360,2012-11-17 01:55:00
8:15 PM,39.2,32.0,75,30.46,10.0,NNE,5.8,-,N/A,,Clear,20,2012-11-17 02:15:00
8:36 PM,37.4,32.0,81,30.46,10.0,NNE,3.5,-,N/A,,Clear,20,2012-11-17 02:36:00
8:57 PM,39.2,32.0,75,30.46,10.0,Calm,Calm,-,N/A,,Clear,0,2012-11-17 02:57:00
9:15 PM,39.2,32.0,75,30.47,10.0,NNE,3.5,-,N/A,,Clear,20,2012-11-17 03:15:00
9:35 PM,37.4,32.0,81,30.47,7.0,NNE,4.6,-,N/A,,Clear,20,2012-11-17 03:35:00
9:55 PM,39.2,32.0,75,30.47,7.0,NNE,3.5,-,N/A,,Clear,20,2012-11-17 03:55:00
10:15 PM,39.2,32.0,75,30.47,7.0,NNE,3.5,-,N/A,,Clear,20,2012-11-17 04:15:00
10:35 PM,39.2,32.0,75,30.46,10.0,North,3.5,-,N/A,,Clear,10,2012-11-17 04:35:00
10:55 PM,37.4,30.2,75,30.47,7.0,NNE,3.5,-,N/A,,Clear,20,2012-11-17 04:55:00
11:15 PM,37.4,30.2,75,30.47,7.0,NE,3.5,-,N/A,,Clear,40,2012-11-17 05:15:00
11:35 PM,37.4,30.2,75,30.47,7.0,NE,4.6,-,N/A,,Clear,40,2012-11-17 05:35:00
11:55 PM,37.4,30.2,75,30.47,7.0,NE,3.5,-,N/A,,Clear,40,2012-11-17 05:55:00